Tracking 31027 objects as of 19-Jul-2025
HD Live streaming from Space Station
objects crossing your sky now

GORIZONT 2

Track GORIZONT 2 now!
GORIZONT 2 is classified as:


NORAD ID: 11440
Int'l Code: 1979-062A
Perigee: 35,773.6 km
Apogee: 35,804.7 km
Inclination: 6.6 °
Period: 1,435.9 minutes
Semi major axis: 42160 km
RCS: 3.981 m2 (large)
Launch date: July 5, 1979
Source: Commonwealth of Independent States (former USSR) (CIS)
Launch site: TYURATAM MISSILE AND SPACE COMPLEX (TTMTR)
Your satellite tracking list
Your tracking list is empty




NASA's NSSDC Master Catalog

Two Line Element Set (TLE):
1 11440U 79062A   25199.90080073 -.00000207  00000-0  00000-0 0  9997
2 11440   6.5598 289.2686 0003688 322.0263  98.3278  1.00288294134682
Source of the keplerian elements: AFSPC